GW0203 Weather Reports


Display with metric or nautical units.
time (UTC)temp
F
wind
direction
speed
MPH
gust
MPH
rain 1hr
in
rain 24hr
in
rain mn
in
humidity
%
barometer
mb
20260901090726 67 114 0.0 2.0 0.00 0.00 0.00 95 1015.7
20260901085224 67 74 1.0 2.0 0.00 0.00 0.00 95 1015.7
20260901083722 67 120 0.0 1.0 0.00 0.00 0.00 95 1016.3
20260901082222 67 69 0.0 0.0 0.00 0.00 0.00 94 1016.6
20260901080718 67 90 0.0 0.0 0.00 0.00 0.00 93 1016.6
20260901075217 67 90 0.0 0.0 0.00 0.00 0.00 93 1016.5
20260901073715 67 114 0.0 0.0 0.00 0.00 0.00 92 1016.5
20260901072212 67 352 0.0 2.0 0.00 0.00 0.00 92 1016.3
20260901070712 67 106 0.0 0.0 0.00 0.00 0.00 92 1016.3
20260901065207 67 114 0.0 0.0 0.00 0.00 0.00 92 1016.6
20260901063703 67 74 0.0 1.0 0.00 0.00 0.00 92 1016.7
20260901062201 67 106 0.0 1.0 0.00 0.00 0.00 91 1016.9
20260901060658 67 180 0.0 0.0 0.00 0.00 0.00 91 1017.0
20260901055156 67 120 0.0 2.0 0.00 0.00 0.00 91 1016.8
20260901053657 67 90 0.0 0.0 0.00 0.00 0.00 91 1016.9
20260901052155 67 140 0.0 0.0 0.00 0.00 0.00 91 1017.1
20260901050654 68 109 1.0 2.0 0.00 0.00 0.00 91 1017.1
20260901045150 67 150 2.0 2.0 0.00 0.00 0.00 92 1017.2
20260901043649 67 66 0.0 2.0 0.00 0.00 0.00 91 1017.2
20260901042145 68 180 0.0 2.0 0.00 0.00 0.00 91 1017.3
20260901040642 68 145 0.0 2.0 0.00 0.00 0.00 91 1017.3
20260901035138 68 157 0.0 1.0 0.00 0.02 0.02 91 1017.5
20260901033637 67 172 0.0 0.0 0.00 0.02 0.02 91 1017.4
20260901032137 67 23 0.0 0.0 0.00 0.02 0.02 91 1017.5
20260901030634 67 172 0.0 1.0 0.00 0.02 0.02 91 1017.2
20260901025130 67 66 0.0 1.0 0.00 0.02 0.02 91 1017.4
20260901023628 67 90 0.0 2.0 0.00 0.02 0.02 90 1017.3
20260901022125 68 117 0.0 0.0 0.00 0.02 0.02 89 1017.5
20260901020624 68 107 0.0 2.0 0.00 0.02 0.02 88 1017.9
20260901015119 68 160 0.0 2.0 0.00 0.02 0.02 87 1018.0
20260901013617 68 97 0.0 2.0 0.00 0.02 0.02 87 1017.6
20260901012113 68 106 0.0 2.0 0.00 0.02 0.02 86 1017.6
20260901010609 68 75 1.0 2.0 0.00 0.02 0.02 86 1017.8
20260901005109 68 188 0.0 2.0 0.00 0.02 0.02 87 1017.8
20260901003605 68 159 0.0 3.0 0.00 0.02 0.02 87 1017.9
20260901002104 68 151 0.0 1.0 0.00 0.02 0.02 87 1018.1
20260901000601 68 102 0.0 3.0 0.00 0.02 0.02 87 1017.6
20260831235058 68 180 1.0 2.0 0.00 0.02 0.02 86 1018.0
20260831233554 69 77 0.0 2.0 0.00 0.02 0.02 86 1018.0
20260831232052 69 105 0.0 3.0 0.00 0.02 0.02 85 1017.8
20260831230551 69 95 2.0 5.0 0.00 0.02 0.02 83 1017.9
20260831225047 70 209 0.0 3.0 0.00 0.02 0.02 82 1017.8
20260831223544 70 180 0.0 2.0 0.00 0.02 0.02 80 1017.9
20260831222042 71 206 0.0 3.0 0.00 0.02 0.02 77 1017.9
20260831220539 71 263 1.0 6.0 0.00 0.02 0.02 78 1017.9
20260831215037 71 225 3.0 4.0 0.00 0.02 0.02 77 1017.8
20260831213532 72 148 0.0 4.0 0.00 0.02 0.02 77 1018.1
20260831212030 75 124 0.0 3.0 0.00 0.02 0.02 71 1018.3
20260831210525 75 154 1.0 3.0 0.00 0.02 0.02 70 1018.2
20260831205024 77 41 0.0 3.0 0.00 0.02 0.02 67 1017.9
20260831203522 76 185 0.0 3.0 0.00 0.02 0.02 67 1017.9
20260831202021 80 126 0.0 2.0 0.00 0.02 0.02 59 1017.8
20260831200517 82 135 0.0 3.0 0.00 0.02 0.02 56 1018.0
20260831195013 79 174 0.0 3.0 0.00 0.02 0.02 63 1017.9
20260831193509 81 156 0.0 4.0 0.00 0.02 0.02 59 1018.0
20260831192006 79 114 0.0 5.0 0.00 0.02 0.02 59 1018.1
20260831190506 82 135 2.0 2.0 0.00 0.02 0.02 55 1018.1
20260831185000 84 173 0.0 3.0 0.00 0.02 0.02 49 1018.1
20260831183455 87 195 0.0 3.0 0.00 0.02 0.02 48 1018.7
20260831181951 84 279 0.0 2.0 0.00 0.02 0.02 50 1018.5
20260831180447 86 190 0.0 4.0 0.00 0.02 0.02 49 1018.5
20260831174944 85 23 0.0 3.0 0.00 0.02 0.02 50 1018.7
20260831173443 88 151 0.0 4.0 0.00 0.02 0.02 48 1018.9
20260831171941 84 157 0.0 3.0 0.00 0.02 0.02 51 1018.8
20260831170441 82 174 0.0 3.0 0.00 0.02 0.02 55 1019.2
20260831164936 84 61 0.0 3.0 0.00 0.02 0.02 52 1019.0
20260831163434 83 145 0.0 3.0 0.00 0.02 0.02 56 1019.0
20260831161932 83 166 1.0 4.0 0.00 0.02 0.02 56 1019.1
20260831160430 83 90 2.0 8.0 0.00 0.02 0.02 55 1019.5
20260831154926 83 153 4.0 5.0 0.00 0.02 0.02 55 1019.5
20260831153422 81 220 0.0 6.0 0.00 0.02 0.02 60 1019.8
20260831151921 80 139 0.0 4.0 0.00 0.02 0.02 66 1019.7
20260831150416 78 180 0.0 3.0 0.00 0.02 0.02 68 1019.5
20260831144913 77 105 3.0 5.0 0.00 0.02 0.02 72 1019.7
20260831143410 75 102 2.0 7.0 0.00 0.02 0.02 74 1019.5
20260831141907 74 352 0.0 6.0 0.00 0.02 0.02 75 1019.4
20260831140403 73 145 0.0 2.0 0.00 0.02 0.02 82 1019.3
20260831134903 73 69 1.0 6.0 0.00 0.02 0.02 79 1019.3
20260831133359 71 188 0.0 7.0 0.00 0.02 0.02 84 1019.1
20260831131855 70 90 2.0 5.0 0.00 0.02 0.02 89 1018.9
20260831130353 69 29 1.0 6.0 0.00 0.02 0.02 90 1019.0
20260831124848 68 43 4.0 5.0 0.00 0.02 0.02 91 1019.2
20260831123343 68 96 3.0 5.0 0.00 0.02 0.02 94 1019.1
20260831121840 67 6 1.0 3.0 0.00 0.02 0.02 96 1019.0
20260831120337 67 59 0.0 2.0 0.00 0.02 0.02 97 1018.9
20260831114834 67 20 0.0 3.0 0.00 0.02 0.02 99 1018.8
20260831113329 65 49 0.0 2.0 0.00 0.02 0.02 99 1018.9
20260831111825 64 52 0.0 2.0 0.00 0.02 0.02 99 1018.5
20260831110323 63 59 0.0 3.0 0.00 0.02 0.02 99 1018.6
20260831104818 63 23 0.0 2.0 0.00 0.02 0.02 99 1018.3
20260831103316 63 99 0.0 3.0 0.00 0.02 0.02 99 1018.0
20260831101813 63 66 0.0 3.0 0.00 0.02 0.02 99 1018.1
20260831100312 63 90 2.0 4.0 0.00 0.02 0.02 99 1017.6
20260831094812 63 340 0.0 3.0 0.00 0.02 0.02 99 1017.2
20260831093309 63 13 3.0 6.0 0.00 0.02 0.02 99 1017.3
20260831091808 64 0 1.0 5.0 0.00 0.02 0.02 99 1016.9